SES-15 (42709 NORAD) Tracking and Keplerian Element Data

This shows tracking and keplerian element data for the satellite.

Feedback or suggestion? Click here.




ElementValue
Catalog42709
NameSES-15
Epoch Orbit244
Epoch Day34.58654498
Epoch Year2025
RAAN20.1428
Inclination0.018
Eccentricity3.01E-05
Argument of Perigee271.9101
Mean Anonmoly283.9238
Mean Motion1.00268947
Decay Rate6.5E-07
L11 42709U 17026A 25034.58654498 .00000065 00000+0 00000+0 0 9990
L22 42709 0.0180 20.1428 0000301 271.9101 283.9238 1.00268947 2447



Live tracking and technical data element details for SES-15 (NORAD 42709). SES-15 can be tracked NOW for your location showing map with azimuth and elevation plus other details from your city location.







IsCatalogInMostPopularTable: catalog: 42709, numindb: 732
Update: records affected: 1



GetName: 42709 SES-15

Hit Count: updated at: Sat, 17 May 2025 09:00:50 GMT